Regional Weather Roundup
Issued by NWS Spokane, WA

Home | Current Version | Previous Version | Text Only | Print | Product List | Glossary On
Versions: 1 2 3 4 5 6 7 8 9 10 11 12 13 14 15 16 17 18 19 20 21 22 23 24 25 26 27 28 29 30 31 32 33 34 35 36 37 38 39 40 41 42 43 44 45 46 47 48 49 50
000
NZUS01 KOTX 010010
RWROTX
EASTERN WASHINGTON/NORTHERN IDAHO ROUNDUP
NATIONAL WEATHER SERVICE, SPOKANE WA
500 PM PDT FRI OCT 31 2014

Note: "fair" indicated few or no clouds below 12,000 feet with no
significant weather and/or obstructions to visibility.

...NORTHEAST WASHINGTON AND NORTHERN IDAHO PANHANDLE...

CITY           SKY/WX    TMP DP  RH WIND       PRES   REMARKS
SPOKANE INTL   CLOUDY    50  47  89 SE3       29.80R
SPOKANE DOWNTO CLOUDY    52  47  83 CALM      29.81R
COEUR D ALENE  CLOUDY    52  46  82 CALM      29.79R
DEER PARK      CLOUDY    49  47  93 CALM      29.80S FOG
SANDPOINT      CLOUDY    50  46  87 S5        29.79R

...SOUTHEAST WASHINGTON AND SOUTHERN IDAHO PANHANDLE...

CITY           SKY/WX    TMP DP  RH WIND       PRES   REMARKS
WALLA WALLA    CLOUDY    55  46  71 S6        29.80F
PULLMAN/MOSCOW CLOUDY    52  47  83 W14       29.82R HAZE
LEWISTON       CLOUDY    58  48  69 NW15      29.79R
LOWELL           N/A     56  51  84 N3        29.73R

...COLUMBIA BASIN...

CITY           SKY/WX    TMP DP  RH WIND       PRES   REMARKS
EPHRATA        CLOUDY    52  48  86 S9        29.75R
MOSES LAKE     CLOUDY    54  52  93 S8        29.77S FOG
TRI CITIES     CLOUDY    56  46  69 SW7       29.80R
HERMISTON      CLOUDY    55  44  66 SW5       29.82R
PENDLETON      CLOUDY    51  46  83 NW13      29.81R

...EAST SLOPES CASCADES...

CITY           SKY/WX    TMP DP  RH WIND       PRES   REMARKS
THE DALLES     CLOUDY    55  45  68 W8        29.82S
YAKIMA         CLOUDY    56  48  74 CALM      29.78R
ELLENSBURG     CLOUDY    52  41  66 NW15G24   29.79R
WENATCHEE      CLOUDY    53  50  89 CALM      29.76R FOG
OMAK           CLOUDY    52  49  89 S6        29.74R

...SOUTHERN BRITISH COLUMBIA...

CITY           SKY/WX    TMP DP  RH WIND       PRES   REMARKS
PENTICTON      MOCLDY    54  48  82 SW8       29.71R
CRANBROOK      MOCLDY    54  43  66 VRB12     29.72R

...WESTERN MONTANA...

CITY           SKY/WX    TMP DP  RH WIND       PRES   REMARKS
MISSOULA       MOCLDY    56  42  59 S5        29.76S

...NEIGHBORING CITIES...

CITY           SKY/WX    TMP DP  RH WIND       PRES   REMARKS
SEATTLE        MOCLDY    53  47  79 S5        29.85R
CALGARY        MOCLDY    48  34  57 N15       29.63R



USA.gov is the U.S. government's official web portal to all federal, state and local government web resources and services.